Home   Weather   Bismarck   Past weeks

Flag for USA Past Weather in Bismarck, North Dakota, USA — Yesterday and Last 2 Weeks

Now
50 °F

Clear.


Feels Like: 45 °F
Forecast: 49 / 65 °F
Wind: 13 mph from Northwest

Location: Bismarck Municipal Airport

Current Time: May 29, 2017 at 4:45:26 am

Latest Report: May 29, 2017 at 3:52 am


Visibility: 10 mi

Pressure: 29.98 "Hg (28.18 "Hg at 513m altitude)

Humidity: 74%

Dew Point: 42 °F

Location of BismarckLocation

Past Weather in Bismarck — Graph

°F

Bismarck Temperature Yesterday

Maximum temperature yesterday: 75 °F (at 1:52 pm)
Minimum temperature yesterday: 44 °F (at 2:52 am)
Average temperature yesterday: 61 °F

High & Low Weather Summary for the Past Weeks

 TemperatureHumidityPressure
High79 °F (May 15, 4:52 pm)96% (May 16, 3:52 am)30.31 "Hg (May 16, 3:52 am)
Low35 °F (May 19, 3:52 am)18% (May 14, 6:52 pm)29.39 "Hg (May 24, 9:52 pm)
Average57 °F54%29.87 "Hg
* Reported May 14 2:52 am — May 29 2:52 am, Bismarck. Weather by CustomWeather, © 2017

Note: Actual official high and low records may vary slightly from our data, if they occured in-between our weather recording intervals... More about our weather records

Advertising

Bismarck Weather History for the Previous 24 Hours

Scroll right to see more
 ConditionsComfort  
Time TempWeatherWind HumidityBarometerVisibility
2:52 am
Mon, May 29
51 °FPassing clouds.12 mph71%29.98 "Hg10 mi
1:52 am51 °FClear.7 mph71%29.96 "Hg10 mi
12:52 am53 °FClear.9 mph66%29.96 "Hg10 mi
11:52 pm
Sun, May 28
55 °FClear.8 mph59%29.96 "Hg10 mi
10:52 pm56 °FClear.12 mph55%29.96 "Hg10 mi
9:52 pm58 °FPassing clouds.10 mph54%29.93 "Hg10 mi
8:52 pm61 °FPassing clouds.18 mph46%29.93 "Hg10 mi
7:52 pm68 °FScattered clouds.25 mph28%29.89 "Hg10 mi
6:52 pm70 °FPassing clouds.28 mph28%29.88 "Hg10 mi
5:52 pm72 °FPassing clouds.30 mph27%29.87 "Hg10 mi
4:52 pm73 °FPassing clouds.23 mph24%29.86 "Hg10 mi
3:52 pm73 °FScattered clouds.22 mph29%29.85 "Hg10 mi
2:52 pm70 °FPartly sunny.24 mph34%29.88 "Hg10 mi
2:22 pm66 °FCloudy.22 mph40%29.87 "Hg10 mi
1:52 pm75 °FPassing clouds.20 mph27%29.86 "Hg10 mi
12:52 pm73 °FPassing clouds.18 mph32%29.90 "Hg10 mi
11:52 am70 °FSunny.17 mph37%29.92 "Hg10 mi
10:52 am67 °FPartly sunny.15 mph42%29.93 "Hg10 mi
9:52 am65 °FSunny.14 mph47%29.94 "Hg10 mi
8:52 am61 °FSunny.15 mph52%29.92 "Hg10 mi
7:52 am55 °FSunny.9 mph62%29.92 "Hg10 mi
6:52 am51 °FSunny.9 mph71%29.91 "Hg10 mi
5:52 am47 °FClear.7 mph83%29.90 "Hg10 mi
4:52 am47 °FClear.8 mph83%29.88 "Hg10 mi
Weather by CustomWeather, © 2017

See weather overviewHow to use our weather pages